Time,TemperatureF,DewpointF,PressureIn,WindDirection,WindDirectionDegrees,WindSpeedMPH,WindSpeedGustMPH,Humidity,HourlyPrecipIn,Conditions,Clouds,dailyrainin,SoftwareType,DateUTC
2013-01-04 00:00:00,43.4,33.9,30.44,NE,51,2.0,3.0,69,0.00,,,0.00,Wunderground v.1.15,2013-01-04 06:00:00,
2013-01-04 00:09:00,43.4,34.3,30.44,NNE,33,1.0,1.0,70,0.00,,,0.00,Wunderground v.1.15,2013-01-04 06:09:00,
2013-01-04 00:15:00,43.4,34.3,30.45,ESE,109,0.0,1.0,70,0.00,,,0.00,Wunderground v.1.15,2013-01-04 06:15:00,
2013-01-04 00:24:00,43.4,34.3,30.45,NE,39,1.0,1.0,70,0.00,,,0.00,Wunderground v.1.15,2013-01-04 06:24:00,
2013-01-04 00:35:00,43.4,33.9,30.45,North,1,1.0,1.0,69,0.00,,,0.00,Wunderground v.1.15,2013-01-04 06:35:00,
2013-01-04 00:44:00,43.4,33.9,30.45,NW,325,1.0,1.0,69,0.00,,,0.00,Wunderground v.1.15,2013-01-04 06:44:00,
2013-01-04 00:55:00,43.4,33.9,30.45,NE,56,1.0,1.0,69,0.00,,,0.00,Wunderground v.1.15,2013-01-04 06:55:00,
2013-01-04 01:04:00,43.4,34.3,30.45,North,1,1.0,3.0,70,0.00,,,0.00,Wunderground v.1.15,2013-01-04 07:04:00,
2013-01-04 01:15:00,43.4,33.9,30.45,NNW,336,1.0,2.0,69,0.00,,,0.00,Wunderground v.1.15,2013-01-04 07:15:00,
2013-01-04 01:24:00,43.4,33.9,30.45,ENE,59,1.0,1.0,69,0.00,,,0.00,Wunderground v.1.15,2013-01-04 07:24:00,
2013-01-04 01:35:00,43.4,34.3,30.47,ENE,60,0.0,1.0,70,0.00,,,0.00,Wunderground v.1.15,2013-01-04 07:35:00,
2013-01-04 01:40:00,43.3,33.8,30.46,NE,47,0.0,1.0,69,0.00,,,0.00,Wunderground v.1.15,2013-01-04 07:40:00,
2013-01-04 01:49:00,43.3,33.8,30.47,North,7,1.0,1.0,69,0.00,,,0.00,Wunderground v.1.15,2013-01-04 07:49:00,
2013-01-04 02:00:00,43.2,34.4,30.45,ENE,66,1.0,1.0,71,0.00,,,0.00,Wunderground v.1.15,2013-01-04 08:00:00,
2013-01-04 02:09:00,42.9,35.5,30.46,NE,56,1.0,1.0,75,0.00,,,0.00,Wunderground v.1.15,2013-01-04 08:09:00,
2013-01-04 02:15:00,42.5,35.8,30.47,NE,50,0.0,1.0,77,0.00,,,0.01,Wunderground v.1.15,2013-01-04 08:15:00,
2013-01-04 02:24:00,41.7,36.6,30.47,NE,49,0.0,0.0,82,0.06,,,0.02,Wunderground v.1.15,2013-01-04 08:24:00,
2013-01-04 02:35:00,40.9,37.0,30.47,NE,47,0.0,1.0,86,0.04,,,0.02,Wunderground v.1.15,2013-01-04 08:35:00,
2013-01-04 02:44:00,40.6,37.0,30.48,NE,47,0.0,1.0,87,0.00,,,0.02,Wunderground v.1.15,2013-01-04 08:44:00,
2013-01-04 02:55:00,40.5,37.2,30.48,NNE,20,1.0,1.0,88,0.00,,,0.02,Wunderground v.1.15,2013-01-04 08:55:00,
2013-01-04 03:04:00,40.5,36.9,30.49,NE,42,1.0,1.0,87,0.00,,,0.02,Wunderground v.1.15,2013-01-04 09:04:00,
2013-01-04 03:10:00,40.6,36.7,30.48,ENE,57,1.0,2.0,86,0.00,,,0.02,Wunderground v.1.15,2013-01-04 09:10:00,
2013-01-04 03:19:00,40.8,36.6,30.50,NNW,344,1.0,1.0,85,0.00,,,0.02,Wunderground v.1.15,2013-01-04 09:19:00,
2013-01-04 03:30:00,41.0,36.5,30.50,NNW,347,1.0,1.0,84,0.00,,,0.02,Wunderground v.1.15,2013-01-04 09:30:00,
2013-01-04 03:39:00,41.0,35.9,30.49,NNE,30,2.0,4.0,82,0.00,,,0.02,Wunderground v.1.15,2013-01-04 09:39:00,
2013-01-04 03:45:00,41.0,35.9,30.50,East,97,2.0,4.0,82,0.00,,,0.02,Wunderground v.1.15,2013-01-04 09:45:00,
2013-01-04 03:54:00,40.5,35.7,30.48,NE,44,2.0,3.0,83,0.00,,,0.03,Wunderground v.1.15,2013-01-04 09:54:00,
2013-01-04 04:05:00,40.0,36.2,30.49,ESE,103,2.0,3.0,86,0.00,,,0.03,Wunderground v.1.15,2013-01-04 10:05:00,
2013-01-04 04:14:00,39.8,36.2,30.50,ENE,57,2.0,2.0,87,0.00,,,0.03,Wunderground v.1.15,2013-01-04 10:14:00,
2013-01-04 04:25:00,39.6,36.3,30.50,NNE,23,1.0,1.0,88,0.00,,,0.03,Wunderground v.1.15,2013-01-04 10:25:00,
2013-01-04 04:34:00,39.4,36.1,30.49,NE,47,2.0,3.0,88,0.00,,,0.03,Wunderground v.1.15,2013-01-04 10:34:00,
2013-01-04 04:44:00,39.3,36.0,30.50,NNE,18,2.0,2.0,88,0.00,,,0.04,Wunderground v.1.15,2013-01-04 10:44:00,
2013-01-04 04:50:00,39.0,36.0,30.50,NE,44,2.0,2.0,89,0.00,,,0.04,Wunderground v.1.15,2013-01-04 10:50:00,
2013-01-04 04:59:00,38.7,36.0,30.50,NE,42,2.0,2.0,90,0.00,,,0.04,Wunderground v.1.15,2013-01-04 10:59:00,
2013-01-04 05:10:00,38.5,36.1,30.50,ENE,69,4.0,4.0,91,0.00,,,0.05,Wunderground v.1.15,2013-01-04 11:10:00,
2013-01-04 05:19:00,38.4,36.0,30.50,NNE,33,3.0,3.0,91,0.00,,,0.05,Wunderground v.1.15,2013-01-04 11:19:00,
2013-01-04 05:25:00,38.3,35.9,30.50,ENE,60,3.0,3.0,91,0.00,,,0.05,Wunderground v.1.15,2013-01-04 11:25:00,
2013-01-04 05:34:00,38.2,36.1,30.49,NNE,18,3.0,3.0,92,0.00,,,0.05,Wunderground v.1.15,2013-01-04 11:34:00,
2013-01-04 05:45:00,38.2,36.1,30.51,ENE,57,3.0,4.0,92,0.00,,,0.05,Wunderground v.1.15,2013-01-04 11:45:00,
2013-01-04 05:55:00,38.2,36.1,30.51,ENE,72,3.0,3.0,92,0.00,,,0.05,Wunderground v.1.15,2013-01-04 11:55:00,
2013-01-04 06:04:00,38.1,36.0,30.50,NNE,33,3.0,3.0,92,0.00,,,0.05,Wunderground v.1.15,2013-01-04 12:04:00,
2013-01-04 06:10:00,38.1,36.0,30.51,NE,47,3.0,3.0,92,0.00,,,0.05,Wunderground v.1.15,2013-01-04 12:10:00,
2013-01-04 06:19:00,38.1,36.0,30.50,North,1,3.0,3.0,92,0.00,,,0.05,Wunderground v.1.15,2013-01-04 12:19:00,
2013-01-04 06:25:00,38.2,36.1,30.51,NNE,22,2.0,3.0,92,0.00,,,0.05,Wunderground v.1.15,2013-01-04 12:25:00,
2013-01-04 06:35:00,38.2,36.1,30.50,NW,326,3.0,3.0,92,0.00,,,0.05,Wunderground v.1.15,2013-01-04 12:35:00,
2013-01-04 06:44:00,38.2,36.1,30.51,NE,51,2.0,3.0,92,0.00,,,0.05,Wunderground v.1.15,2013-01-04 12:44:00,
2013-01-04 06:50:00,38.2,36.1,30.52,NE,44,2.0,2.0,92,0.00,,,0.05,Wunderground v.1.15,2013-01-04 12:50:00,
2013-01-04 06:59:00,38.2,36.1,30.53,NE,44,2.0,2.0,92,0.00,,,0.05,Wunderground v.1.15,2013-01-04 12:59:00,
2013-01-04 07:10:00,38.2,36.1,30.52,NNE,13,2.0,2.0,92,0.00,,,0.05,Wunderground v.1.15,2013-01-04 13:10:00,
2013-01-04 07:19:00,38.2,36.1,30.52,ENE,68,2.0,2.0,92,0.00,,,0.05,Wunderground v.1.15,2013-01-04 13:19:00,
2013-01-04 07:30:00,38.2,36.4,30.52,NNW,336,2.0,3.0,93,0.00,,,0.06,Wunderground v.1.15,2013-01-04 13:30:00,
2013-01-04 07:39:00,38.0,36.2,30.52,NE,45,2.0,2.0,93,0.00,,,0.06,Wunderground v.1.15,2013-01-04 13:39:00,
2013-01-04 07:49:00,37.9,36.1,30.53,North,6,1.0,1.0,93,0.00,,,0.06,Wunderground v.1.15,2013-01-04 13:49:00,
2013-01-04 07:59:00,37.9,36.3,30.54,NNE,30,1.0,3.0,94,0.00,,,0.06,Wunderground v.1.15,2013-01-04 13:59:00,
2013-01-04 08:05:00,37.9,36.3,30.53,ENE,65,2.0,3.0,94,0.00,,,0.06,Wunderground v.1.15,2013-01-04 14:05:00,
2013-01-04 08:14:00,37.9,36.3,30.53,NNE,18,1.0,2.0,94,0.00,,,0.06,Wunderground v.1.15,2013-01-04 14:14:00,
2013-01-04 08:25:00,38.0,36.4,30.54,ENE,60,2.0,2.0,94,0.00,,,0.06,Wunderground v.1.15,2013-01-04 14:25:00,
2013-01-04 08:34:00,38.0,36.4,30.53,North,360,2.0,2.0,94,0.00,,,0.07,Wunderground v.1.15,2013-01-04 14:34:00,
2013-01-04 08:45:00,38.1,36.5,30.53,NNW,340,2.0,2.0,94,0.00,,,0.07,Wunderground v.1.15,2013-01-04 14:45:00,
2013-01-04 08:54:00,38.2,36.6,30.54,North,7,2.0,8.0,94,0.00,,,0.07,Wunderground v.1.15,2013-01-04 14:54:00,
2013-01-04 09:05:00,38.2,36.6,30.55,ENE,73,2.0,3.0,94,0.00,,,0.08,Wunderground v.1.15,2013-01-04 15:05:00,
2013-01-04 09:14:00,38.2,36.6,30.55,NE,37,2.0,2.0,94,0.00,,,0.08,Wunderground v.1.15,2013-01-04 15:14:00,
2013-01-04 09:24:00,38.3,36.7,30.56,ENE,72,2.0,2.0,94,0.00,,,0.08,Wunderground v.1.15,2013-01-04 15:24:00,
2013-01-04 09:30:00,38.4,37.1,30.56,NNE,16,2.0,2.0,95,0.00,,,0.08,Wunderground v.1.15,2013-01-04 15:30:00,
2013-01-04 09:39:00,38.6,37.3,30.56,NE,39,1.0,1.0,95,0.00,,,0.08,Wunderground v.1.15,2013-01-04 15:39:00,
2013-01-04 09:45:00,38.7,37.4,30.56,NNE,33,1.0,1.0,95,0.00,,,0.09,Wunderground v.1.15,2013-01-04 15:45:00,
2013-01-04 09:55:00,38.8,37.5,30.56,North,360,1.0,2.0,95,0.00,,,0.09,Wunderground v.1.15,2013-01-04 15:55:00,
2013-01-04 10:04:00,38.8,37.5,30.56,ENE,66,2.0,2.0,95,0.00,,,0.09,Wunderground v.1.15,2013-01-04 16:04:00,
2013-01-04 10:10:00,39.0,37.7,30.56,NE,34,2.0,2.0,95,0.00,,,0.09,Wunderground v.1.15,2013-01-04 16:10:00,
2013-01-04 10:19:00,39.0,37.7,30.56,NE,34,2.0,4.0,95,0.00,,,0.09,Wunderground v.1.15,2013-01-04 16:19:00,
2013-01-04 10:30:00,39.2,37.9,30.56,ENE,78,2.0,2.0,95,0.00,,,0.09,Wunderground v.1.15,2013-01-04 16:30:00,
2013-01-04 10:35:00,39.3,38.0,30.56,North,356,2.0,5.0,95,0.00,,,0.09,Wunderground v.1.15,2013-01-04 16:35:00,
2013-01-04 10:44:00,39.3,38.0,30.56,East,99,2.0,3.0,95,0.00,,,0.09,Wunderground v.1.15,2013-01-04 16:44:00,
2013-01-04 10:50:00,39.4,38.1,30.56,North,352,2.0,2.0,95,0.00,,,0.09,Wunderground v.1.15,2013-01-04 16:50:00,
2013-01-04 10:59:00,39.6,38.0,30.55,ENE,68,2.0,2.0,94,0.00,,,0.09,Wunderground v.1.15,2013-01-04 16:59:00,
2013-01-04 11:10:00,39.8,38.2,30.55,NNE,31,2.0,2.0,94,0.00,,,0.09,Wunderground v.1.15,2013-01-04 17:10:00,
2013-01-04 11:19:00,39.8,38.2,30.54,ENE,67,2.0,2.0,94,0.00,,,0.09,Wunderground v.1.15,2013-01-04 17:19:00,
2013-01-04 11:30:00,39.9,38.3,30.53,North,353,2.0,2.0,94,0.00,,,0.09,Wunderground v.1.15,2013-01-04 17:30:00,
2013-01-04 11:39:00,40.0,38.1,30.53,ENE,77,1.0,1.0,93,0.00,,,0.09,Wunderground v.1.15,2013-01-04 17:39:00,
2013-01-04 11:50:00,40.3,38.4,30.53,ENE,65,1.0,1.0,93,0.00,,,0.10,Wunderground v.1.15,2013-01-04 17:50:00,
2013-01-04 11:59:00,40.7,39.1,30.53,ENE,72,0.0,1.0,94,0.05,,,0.11,Wunderground v.1.15,2013-01-04 17:59:00,
2013-01-04 12:10:00,40.5,38.6,30.52,ENE,66,1.0,1.0,93,0.05,,,0.11,Wunderground v.1.15,2013-01-04 18:10:00,
2013-01-04 12:19:00,40.7,39.1,30.50,North,358,1.0,2.0,94,0.00,,,0.11,Wunderground v.1.15,2013-01-04 18:19:00,
2013-01-04 12:25:00,40.5,38.6,30.50,ENE,70,2.0,2.0,93,0.00,,,0.11,Wunderground v.1.15,2013-01-04 18:25:00,
2013-01-04 12:34:00,40.2,38.3,30.49,NE,47,2.0,2.0,93,0.00,,,0.11,Wunderground v.1.15,2013-01-04 18:34:00,
2013-01-04 12:45:00,40.3,38.4,30.49,NNE,19,1.0,4.0,93,0.00,,,0.12,Wunderground v.1.15,2013-01-04 18:45:00,
2013-01-04 12:54:00,40.2,38.6,30.48,ENE,62,2.0,2.0,94,0.10,,,0.14,Wunderground v.1.15,2013-01-04 18:54:00,
2013-01-04 13:05:00,40.2,38.6,30.48,NE,43,1.0,1.0,94,0.13,,,0.16,Wunderground v.1.15,2013-01-04 19:05:00,
2013-01-04 13:14:00,40.3,38.7,30.47,NE,46,1.0,3.0,94,0.04,,,0.16,Wunderground v.1.15,2013-01-04 19:14:00,
2013-01-04 13:24:00,40.3,39.0,30.47,North,349,1.0,2.0,95,0.00,,,0.16,Wunderground v.1.15,2013-01-04 19:24:00,
2013-01-04 13:30:00,40.4,39.1,30.46,NNE,22,1.0,1.0,95,0.00,,,0.16,Wunderground v.1.15,2013-01-04 19:30:00,
2013-01-04 13:39:00,40.5,39.2,30.45,NW,312,1.0,1.0,95,0.00,,,0.16,Wunderground v.1.15,2013-01-04 19:39:00,
2013-01-04 13:50:00,40.8,39.5,30.45,NE,53,1.0,1.0,95,0.00,,,0.16,Wunderground v.1.15,2013-01-04 19:50:00,
2013-01-04 13:59:00,41.0,39.7,30.45,East,84,1.0,1.0,95,0.00,,,0.16,Wunderground v.1.15,2013-01-04 19:59:00,
2013-01-04 14:05:00,41.0,39.7,30.44,NE,43,1.0,2.0,95,0.00,,,0.17,Wunderground v.1.15,2013-01-04 20:05:00,
2013-01-04 14:14:00,41.1,39.8,30.44,NE,53,1.0,1.0,95,0.00,,,0.17,Wunderground v.1.15,2013-01-04 20:14:00,
2013-01-04 14:24:00,41.0,39.7,30.44,NNE,20,1.0,3.0,95,0.00,,,0.17,Wunderground v.1.15,2013-01-04 20:24:00,
2013-01-04 14:30:00,41.0,39.7,30.44,North,356,1.0,1.0,95,0.00,,,0.17,Wunderground v.1.15,2013-01-04 20:30:00,
2013-01-04 14:39:00,41.1,39.8,30.44,North,6,1.0,1.0,95,0.00,,,0.18,Wunderground v.1.15,2013-01-04 20:39:00,
2013-01-04 14:50:00,41.1,39.8,30.44,NE,37,1.0,1.0,95,0.00,,,0.18,Wunderground v.1.15,2013-01-04 20:50:00,
2013-01-04 14:59:00,41.1,39.8,30.43,North,349,1.0,1.0,95,0.04,,,0.19,Wunderground v.1.15,2013-01-04 20:59:00,
2013-01-04 15:05:00,41.2,39.9,30.43,NE,36,1.0,3.0,95,0.04,,,0.19,Wunderground v.1.15,2013-01-04 21:05:00,
2013-01-04 15:14:00,41.2,39.9,30.43,NNE,30,2.0,2.0,95,0.00,,,0.19,Wunderground v.1.15,2013-01-04 21:14:00,
2013-01-04 15:24:00,41.5,40.2,30.43,ENE,59,1.0,2.0,95,0.00,,,0.19,Wunderground v.1.15,2013-01-04 21:24:00,
2013-01-04 15:30:00,41.5,40.2,30.44,NNE,26,1.0,1.0,95,0.00,,,0.19,Wunderground v.1.15,2013-01-04 21:30:00,
2013-01-04 15:39:00,41.7,40.4,30.44,NE,42,1.0,1.0,95,0.00,,,0.19,Wunderground v.1.15,2013-01-04 21:39:00,
2013-01-04 15:45:00,41.7,40.4,30.44,NNW,338,1.0,1.0,95,0.00,,,0.19,Wunderground v.1.15,2013-01-04 21:45:00,
2013-01-04 15:54:00,41.5,39.9,30.44,NE,39,1.0,1.0,94,0.00,,,0.19,Wunderground v.1.15,2013-01-04 21:54:00,
2013-01-04 16:05:00,41.6,40.0,30.44,North,356,0.0,1.0,94,0.00,,,0.19,Wunderground v.1.15,2013-01-04 22:05:00,
2013-01-04 16:14:00,41.7,40.1,30.44,North,6,1.0,2.0,94,0.00,,,0.19,Wunderground v.1.15,2013-01-04 22:14:00,
2013-01-04 16:24:00,41.5,39.9,30.44,NNE,13,1.0,1.0,94,0.00,,,0.19,Wunderground v.1.15,2013-01-04 22:24:00,
2013-01-04 16:30:00,41.5,39.9,30.44,NNE,25,1.0,1.0,94,0.00,,,0.19,Wunderground v.1.15,2013-01-04 22:30:00,
2013-01-04 16:39:00,41.5,39.9,30.44,SE,125,1.0,1.0,94,0.00,,,0.19,Wunderground v.1.15,2013-01-04 22:39:00,
2013-01-04 16:45:00,41.6,40.0,30.44,North,358,1.0,1.0,94,0.00,,,0.19,Wunderground v.1.15,2013-01-04 22:45:00,
2013-01-04 16:54:00,41.6,40.0,30.44,North,11,0.0,0.0,94,0.00,,,0.19,Wunderground v.1.15,2013-01-04 22:54:00,
2013-01-04 17:04:00,41.5,39.9,30.45,NE,45,0.0,0.0,94,0.00,,,0.19,Wunderground v.1.15,2013-01-04 23:04:00,
2013-01-04 17:10:00,41.5,39.9,30.45,NE,49,0.0,0.0,94,0.00,,,0.19,Wunderground v.1.15,2013-01-04 23:10:00,
2013-01-04 17:19:00,41.4,39.8,30.44,North,358,0.0,1.0,94,0.00,,,0.19,Wunderground v.1.15,2013-01-04 23:19:00,
2013-01-04 17:25:00,41.4,40.1,30.44,NNE,13,0.0,1.0,95,0.00,,,0.19,Wunderground v.1.15,2013-01-04 23:25:00,
2013-01-04 17:34:00,41.3,40.0,30.44,NE,42,0.0,0.0,95,0.00,,,0.19,Wunderground v.1.15,2013-01-04 23:34:00,
2013-01-04 17:45:00,41.3,39.7,30.44,East,98,1.0,1.0,94,0.00,,,0.19,Wunderground v.1.15,2013-01-04 23:45:00,
2013-01-04 17:54:00,41.2,39.9,30.44,NNE,13,0.0,1.0,95,0.00,,,0.19,Wunderground v.1.15,2013-01-04 23:54:00,
2013-01-04 18:04:00,41.2,39.9,30.44,NE,37,0.0,2.0,95,0.00,,,0.19,Wunderground v.1.15,2013-01-05 00:04:00,
2013-01-04 18:10:00,41.2,39.9,30.45,NE,41,1.0,1.0,95,0.00,,,0.19,Wunderground v.1.15,2013-01-05 00:10:00,
2013-01-04 18:19:00,41.1,39.8,30.45,NNW,342,1.0,1.0,95,0.00,,,0.19,Wunderground v.1.15,2013-01-05 00:19:00,
2013-01-04 18:24:00,41.0,39.7,30.45,NNE,21,1.0,1.0,95,0.00,,,0.19,Wunderground v.1.15,2013-01-05 00:24:00,
2013-01-04 18:30:00,41.0,39.7,30.45,North,360,1.0,1.0,95,0.00,,,0.19,Wunderground v.1.15,2013-01-05 00:30:00,
2013-01-04 18:39:00,41.0,39.7,30.45,NNE,27,0.0,0.0,95,0.00,,,0.19,Wunderground v.1.15,2013-01-05 00:39:00,
2013-01-04 18:49:00,41.0,39.7,30.45,NNE,32,0.0,2.0,95,0.00,,,0.19,Wunderground v.1.15,2013-01-05 00:49:00,
2013-01-04 18:55:00,41.0,39.7,30.45,NE,42,0.0,2.0,95,0.00,,,0.19,Wunderground v.1.15,2013-01-05 00:55:00,
2013-01-04 19:04:00,41.0,39.7,30.45,NNE,16,0.0,1.0,95,0.00,,,0.19,Wunderground v.1.15,2013-01-05 01:04:00,
2013-01-04 19:15:00,41.0,39.7,30.45,North,8,0.0,1.0,95,0.00,,,0.19,Wunderground v.1.15,2013-01-05 01:15:00,
2013-01-04 19:24:00,41.0,39.7,30.45,North,9,0.0,0.0,95,0.00,,,0.19,Wunderground v.1.15,2013-01-05 01:24:00,
2013-01-04 19:35:00,41.0,39.7,30.46,NW,316,0.0,0.0,95,0.00,,,0.19,Wunderground v.1.15,2013-01-05 01:35:00,
2013-01-04 19:44:00,41.1,39.8,30.45,North,355,0.0,1.0,95,0.00,,,0.19,Wunderground v.1.15,2013-01-05 01:44:00,
2013-01-04 19:55:00,41.0,39.7,30.45,NNE,18,0.0,0.0,95,0.00,,,0.19,Wunderground v.1.15,2013-01-05 01:55:00,
2013-01-04 20:04:00,41.0,39.7,30.46,NNW,332,0.0,0.0,95,0.00,,,0.19,Wunderground v.1.15,2013-01-05 02:04:00,
2013-01-04 20:15:00,41.1,39.8,30.46,NNW,329,0.0,0.0,95,0.00,,,0.19,Wunderground v.1.15,2013-01-05 02:15:00,
2013-01-04 20:24:00,41.1,39.8,30.46,NNW,338,0.0,0.0,95,0.00,,,0.19,Wunderground v.1.15,2013-01-05 02:24:00,
2013-01-04 20:35:00,41.1,39.8,30.47,NNW,336,0.0,0.0,95,0.00,,,0.19,Wunderground v.1.15,2013-01-05 02:35:00,
2013-01-04 20:44:00,41.1,39.8,30.47,NNE,19,0.0,0.0,95,0.00,,,0.19,Wunderground v.1.15,2013-01-05 02:44:00,
2013-01-04 20:55:00,41.1,40.0,30.47,ENE,66,0.0,0.0,96,0.00,,,0.19,Wunderground v.1.15,2013-01-05 02:55:00,
2013-01-04 21:04:00,41.1,40.0,30.46,ENE,65,0.0,0.0,96,0.00,,,0.19,Wunderground v.1.15,2013-01-05 03:04:00,
2013-01-04 21:15:00,41.1,40.0,30.47,North,351,0.0,0.0,96,0.00,,,0.19,Wunderground v.1.15,2013-01-05 03:15:00,
2013-01-04 21:25:00,41.1,40.0,30.47,NNE,25,0.0,0.0,96,0.00,,,0.19,Wunderground v.1.15,2013-01-05 03:25:00,
2013-01-04 21:34:00,41.1,40.0,30.47,NW,322,1.0,1.0,96,0.00,,,0.19,Wunderground v.1.15,2013-01-05 03:34:00,
2013-01-04 21:45:00,41.1,40.0,30.47,NW,321,0.0,0.0,96,0.00,,,0.19,Wunderground v.1.15,2013-01-05 03:45:00,
2013-01-04 21:54:00,41.1,39.8,30.46,NNW,330,0.0,1.0,95,0.00,,,0.19,Wunderground v.1.15,2013-01-05 03:54:00,
2013-01-04 22:05:00,41.0,39.7,30.46,NW,321,0.0,0.0,95,0.00,,,0.19,Wunderground v.1.15,2013-01-05 04:05:00,
2013-01-04 22:14:00,41.0,39.9,30.46,NW,309,0.0,2.0,96,0.00,,,0.19,Wunderground v.1.15,2013-01-05 04:14:00,
2013-01-04 22:25:00,41.0,39.9,30.46,NW,322,1.0,2.0,96,0.00,,,0.19,Wunderground v.1.15,2013-01-05 04:25:00,
2013-01-04 22:34:00,40.9,39.6,30.46,NW,318,1.0,2.0,95,0.00,,,0.19,Wunderground v.1.15,2013-01-05 04:34:00,
2013-01-04 22:45:00,40.9,39.6,30.46,ENE,57,1.0,1.0,95,0.00,,,0.19,Wunderground v.1.15,2013-01-05 04:45:00,
2013-01-04 22:54:00,40.9,39.6,30.45,NE,55,1.0,1.0,95,0.00,,,0.19,Wunderground v.1.15,2013-01-05 04:54:00,
2013-01-04 23:05:00,40.9,39.6,30.45,NE,49,1.0,1.0,95,0.00,,,0.19,Wunderground v.1.15,2013-01-05 05:05:00,
2013-01-04 23:14:00,40.9,39.6,30.45,NE,42,1.0,1.0,95,0.00,,,0.19,Wunderground v.1.15,2013-01-05 05:14:00,
2013-01-04 23:19:00,40.9,39.6,30.44,NNE,25,0.0,0.0,95,0.00,,,0.19,Wunderground v.1.15,2013-01-05 05:19:00,
2013-01-04 23:25:00,40.9,39.6,30.45,NNE,29,0.0,0.0,95,0.00,,,0.19,Wunderground v.1.15,2013-01-05 05:25:00,
2013-01-04 23:34:00,41.0,39.7,30.45,NNE,16,0.0,0.0,95,0.00,,,0.19,Wunderground v.1.15,2013-01-05 05:34:00,
2013-01-04 23:40:00,41.0,39.7,30.45,North,9,0.0,0.0,95,0.00,,,0.19,Wunderground v.1.15,2013-01-05 05:40:00,
2013-01-04 23:49:00,41.0,39.7,30.44,NE,39,0.0,0.0,95,0.00,,,0.19,Wunderground v.1.15,2013-01-05 05:49:00,